Radiation Dose at Monitoring Post of Fukushima Daini Nuclear Power Station
Date,Time,MP-1(microSv/h),MP-2(microSv/h),MP-3(microSv/h),MP-4(microSv/h),MP-5(microSv/h),MP-6(microSv/h),MP-7(microSv/h),Wind Direction,Wind Velocity(m/s),Rain
2016/12/25,00:00,0.387,0.234,0.398,0.368,0.341,0.192,0.165,northwest,2.2,No
2016/12/25,00:10,0.385,0.232,0.399,0.369,0.340,0.192,0.164,north-northwest,2.4,No
2016/12/25,00:20,0.386,0.232,0.399,0.370,0.338,0.192,0.164,north-northwest,2.6,No
2016/12/25,00:30,0.387,0.232,0.398,0.370,0.341,0.191,0.164,northwest,2.3,No
2016/12/25,00:40,0.386,0.232,0.399,0.370,0.340,0.192,0.163,north-northwest,2.2,No
2016/12/25,00:50,0.386,0.232,0.398,0.369,0.339,0.191,0.164,north-northwest,2.5,No
2016/12/25,01:00,0.385,0.232,0.398,0.370,0.339,0.192,0.163,north-northwest,3.1,No
2016/12/25,01:10,0.385,0.230,0.398,0.369,0.340,0.191,0.164,northwest,2.5,No
2016/12/25,01:20,0.387,0.232,0.397,0.369,0.340,0.192,0.164,northwest,2.1,No
2016/12/25,01:30,0.386,0.232,0.397,0.369,0.338,0.191,0.164,north,2.9,No
2016/12/25,01:40,0.384,0.232,0.398,0.370,0.339,0.191,0.163,north,4.2,No
2016/12/25,01:50,0.384,0.232,0.399,0.370,0.339,0.192,0.164,north,4.8,No
2016/12/25,02:00,0.387,0.232,0.398,0.370,0.340,0.193,0.165,north,4.8,No
2016/12/25,02:10,0.385,0.231,0.399,0.369,0.340,0.193,0.162,north,5.4,No
2016/12/25,02:20,0.384,0.233,0.398,0.369,0.340,0.192,0.163,north,5.6,No
2016/12/25,02:30,0.385,0.232,0.399,0.370,0.338,0.192,0.163,north,5.2,No
2016/12/25,02:40,0.385,0.231,0.398,0.369,0.341,0.192,0.164,north,4.3,No
2016/12/25,02:50,0.386,0.232,0.398,0.368,0.340,0.191,0.164,north,3.3,No
2016/12/25,03:00,0.387,0.231,0.399,0.369,0.340,0.191,0.164,north,4.2,No
2016/12/25,03:10,0.385,0.233,0.398,0.370,0.340,0.191,0.164,north,3.9,No
2016/12/25,03:20,0.386,0.233,0.399,0.372,0.338,0.192,0.163,north-northwest,3.5,No
2016/12/25,03:30,0.386,0.233,0.399,0.368,0.338,0.192,0.163,north-northwest,4.6,No
2016/12/25,03:40,0.386,0.232,0.398,0.369,0.338,0.192,0.163,north,4.0,No
2016/12/25,03:50,0.385,0.232,0.399,0.367,0.339,0.192,0.164,north-northwest,2.7,No
2016/12/25,04:00,0.385,0.232,0.398,0.370,0.340,0.191,0.163,north-northwest,2.6,No
2016/12/25,04:10,0.385,0.234,0.398,0.369,0.340,0.192,0.163,northwest,3.1,No
2016/12/25,04:20,0.385,0.232,0.399,0.370,0.339,0.192,0.163,northwest,3.2,No
2016/12/25,04:30,0.387,0.232,0.398,0.368,0.338,0.190,0.163,west-northwest,3.3,No
2016/12/25,04:40,0.385,0.233,0.400,0.369,0.340,0.192,0.164,west,3.4,No
2016/12/25,04:50,0.385,0.232,0.398,0.369,0.339,0.191,0.164,west-northwest,4.5,No
2016/12/25,05:00,0.385,0.233,0.397,0.370,0.338,0.191,0.164,west-northwest,6.2,No
2016/12/25,05:10,0.386,0.231,0.396,0.370,0.338,0.191,0.163,west-northwest,5.0,No
2016/12/25,05:20,0.386,0.232,0.397,0.369,0.339,0.192,0.164,west-northwest,5.9,No
2016/12/25,05:30,0.387,0.232,0.398,0.369,0.339,0.191,0.162,northwest,5.4,No
2016/12/25,05:40,0.384,0.232,0.398,0.369,0.340,0.191,0.162,west-northwest,6.2,No
2016/12/25,05:50,0.385,0.231,0.398,0.369,0.338,0.193,0.163,northwest,6.3,No
2016/12/25,06:00,0.387,0.232,0.397,0.368,0.339,0.191,0.163,west-northwest,5.3,No
2016/12/25,06:10,0.385,0.231,0.399,0.369,0.339,0.191,0.163,west-northwest,6.6,No
2016/12/25,06:20,0.385,0.232,0.397,0.369,0.340,0.190,0.162,west-northwest,6.0,No
2016/12/25,06:30,0.386,0.233,0.398,0.369,0.338,0.191,0.162,west-northwest,5.6,No
2016/12/25,06:40,0.385,0.232,0.398,0.368,0.337,0.191,0.164,west-northwest,6.7,No
2016/12/25,06:50,0.386,0.231,0.400,0.370,0.339,0.192,0.163,west-northwest,5.6,No
2016/12/25,07:00,0.384,0.233,0.398,0.367,0.338,0.192,0.163,west-northwest,5.8,No
2016/12/25,07:10,0.384,0.232,0.396,0.368,0.339,0.191,0.163,west-northwest,7.3,No
2016/12/25,07:20,0.385,0.230,0.397,0.370,0.338,0.191,0.163,west-northwest,7.2,No
2016/12/25,07:30,0.385,0.232,0.399,0.368,0.338,0.190,0.164,west-northwest,6.0,No
2016/12/25,07:40,0.385,0.231,0.399,0.369,0.338,0.191,0.163,west-northwest,5.5,No
2016/12/25,07:50,0.384,0.231,0.397,0.369,0.339,0.191,0.163,west-northwest,6.4,No
2016/12/25,08:00,0.384,0.232,0.397,0.369,0.339,0.191,0.163,west-northwest,5.9,No
2016/12/25,08:10,0.386,0.231,0.400,0.368,0.339,0.192,0.163,northwest,4.5,No
2016/12/25,08:20,0.385,0.230,0.398,0.368,0.338,0.191,0.162,west-northwest,3.0,No
2016/12/25,08:30,0.386,0.231,0.399,0.369,0.339,0.190,0.162,west-northwest,2.9,No
2016/12/25,08:40,0.384,0.230,0.398,0.367,0.338,0.191,0.163,west,3.2,No
2016/12/25,08:50,0.386,0.232,0.397,0.370,0.338,0.191,0.163,west-northwest,2.2,No
2016/12/25,09:00,0.384,0.232,0.396,0.366,0.339,0.190,0.162,northwest,1.7,No
2016/12/25,09:10,0.385,0.232,0.398,0.366,0.339,0.190,0.163,west,1.7,No
2016/12/25,09:20,0.384,0.231,0.396,0.368,0.339,0.191,0.163,west,1.3,No
2016/12/25,09:30,0.385,0.231,0.400,0.366,0.339,0.191,0.162,northwest,2.0,No
2016/12/25,09:40,0.385,0.231,0.397,0.369,0.338,0.191,0.163,west-northwest,4.9,No
2016/12/25,09:50,0.384,0.230,0.396,0.366,0.338,0.192,0.162,west-northwest,4.6,No
2016/12/25,10:00,0.385,0.231,0.398,0.370,0.338,0.192,0.163,northwest,1.9,No
2016/12/25,10:10,0.385,0.232,0.397,0.366,0.339,0.192,0.164,northwest,1.4,No
2016/12/25,10:20,0.384,0.232,0.395,0.370,0.337,0.192,0.163,-,CALM,No
2016/12/25,10:30,0.385,0.230,0.398,0.367,0.340,0.191,0.163,west-southwest,1.1,No
2016/12/25,10:40,0.382,0.232,0.398,0.369,0.336,0.192,0.163,west-northwest,1.7,No
2016/12/25,10:50,0.383,0.232,0.398,0.369,0.336,0.191,0.165,west,2.8,No
2016/12/25,11:00,0.384,0.232,0.399,0.368,0.338,0.192,0.163,west-southwest,2.2,No
2016/12/25,11:10,0.383,0.231,0.398,0.369,0.338,0.193,0.163,west-northwest,2.9,No
2016/12/25,11:20,0.383,0.231,0.394,0.369,0.338,0.191,0.164,west,6.2,No
2016/12/25,11:30,0.381,0.231,0.398,0.368,0.338,0.193,0.163,west-northwest,5.1,No
2016/12/25,11:40,0.386,0.232,0.396,0.368,0.339,0.191,0.163,west,4.2,No
2016/12/25,11:50,0.384,0.232,0.398,0.370,0.338,0.192,0.163,west-northwest,3.1,No
2016/12/25,12:00,0.386,0.231,0.397,0.366,0.340,0.191,0.162,west,4.6,No
2016/12/25,12:10,0.383,0.233,0.396,0.370,0.339,0.192,0.162,west-northwest,4.2,No
2016/12/25,12:20,0.385,0.232,0.398,0.369,0.340,0.191,0.163,west,3.7,No
2016/12/25,12:30,0.385,0.232,0.396,0.370,0.339,0.192,0.164,west,6.2,No
2016/12/25,12:40,0.384,0.233,0.397,0.368,0.339,0.192,0.163,west-northwest,6.6,No
2016/12/25,12:50,0.387,0.232,0.396,0.371,0.340,0.192,0.164,west-northwest,6.1,No
2016/12/25,13:00,0.384,0.234,0.398,0.368,0.340,0.192,0.164,west,5.4,No
2016/12/25,13:10,0.386,0.231,0.396,0.368,0.340,0.192,0.163,west,4.8,No
2016/12/25,13:20,0.383,0.232,0.397,0.368,0.341,0.193,0.164,west-northwest,6.5,No
2016/12/25,13:30,0.385,0.232,0.396,0.368,0.340,0.192,0.164,west-northwest,5.9,No
2016/12/25,13:40,0.385,0.232,0.398,0.368,0.342,0.193,0.164,west-northwest,4.0,No
2016/12/25,13:50,0.384,0.233,0.398,0.369,0.339,0.191,0.163,northwest,3.0,No
2016/12/25,14:00,0.385,0.233,0.397,0.369,0.340,0.191,0.163,northwest,4.3,No
2016/12/25,14:10,0.386,0.233,0.400,0.370,0.341,0.191,0.163,northwest,1.6,No
2016/12/25,14:20,0.387,0.232,0.398,0.370,0.339,0.192,0.164,west-northwest,3.3,No
2016/12/25,14:30,0.388,0.233,0.400,0.370,0.341,0.192,0.165,north-northwest,3.1,No
2016/12/25,14:40,0.386,0.232,0.399,0.373,0.338,0.192,0.163,north-northwest,5.6,No
2016/12/25,14:50,0.386,0.233,0.398,0.370,0.340,0.192,0.165,north-northwest,6.6,No
2016/12/25,15:00,0.387,0.232,0.400,0.370,0.341,0.191,0.165,northwest,4.1,No
2016/12/25,15:10,0.384,0.233,0.399,0.371,0.342,0.192,0.165,northwest,1.3,No
2016/12/25,15:20,0.386,0.233,0.398,0.370,0.340,0.192,0.164,northwest,1.7,No
2016/12/25,15:30,0.388,0.233,0.402,0.372,0.340,0.194,0.166,west-northwest,3.6,No
2016/12/25,15:40,0.386,0.233,0.399,0.371,0.341,0.192,0.164,west-northwest,4.5,No
2016/12/25,15:50,0.385,0.233,0.400,0.370,0.340,0.191,0.165,northwest,6.7,No
2016/12/25,16:00,0.387,0.233,0.400,0.373,0.342,0.193,0.165,west-northwest,6.2,No
2016/12/25,16:10,0.389,0.233,0.399,0.370,0.340,0.192,0.163,northwest,5.5,No
2016/12/25,16:20,0.387,0.234,0.400,0.370,0.340,0.192,0.163,west-northwest,5.5,No
2016/12/25,16:30,0.387,0.234,0.399,0.372,0.342,0.192,0.164,northwest,4.2,No
2016/12/25,16:40,0.388,0.233,0.397,0.371,0.341,0.193,0.163,northwest,3.2,No
2016/12/25,16:50,0.386,0.234,0.399,0.370,0.339,0.191,0.164,north-northwest,3.2,No
2016/12/25,17:00,0.387,0.233,0.401,0.372,0.340,0.193,0.165,north-northwest,3.4,No
2016/12/25,17:10,0.388,0.232,0.399,0.370,0.341,0.192,0.163,north-northwest,3.5,No
2016/12/25,17:20,0.386,0.234,0.398,0.369,0.340,0.191,0.165,northwest,4.1,No
2016/12/25,17:30,0.387,0.232,0.401,0.370,0.339,0.192,0.165,northwest,3.6,No
2016/12/25,17:40,0.387,0.233,0.399,0.370,0.341,0.192,0.164,west-northwest,4.2,No
2016/12/25,17:50,0.387,0.233,0.399,0.371,0.340,0.191,0.164,northwest,5.8,No
2016/12/25,18:00,0.386,0.233,0.399,0.370,0.340,0.192,0.164,west-northwest,6.5,No
2016/12/25,18:10,0.387,0.233,0.399,0.371,0.340,0.193,0.164,northwest,3.6,No
2016/12/25,18:20,0.387,0.233,0.398,0.370,0.340,0.193,0.164,west-northwest,2.9,No
2016/12/25,18:30,0.388,0.232,0.399,0.370,0.340,0.194,0.164,west-northwest,3.1,No
2016/12/25,18:40,0.386,0.233,0.400,0.370,0.339,0.191,0.164,northwest,3.2,No
2016/12/25,18:50,0.387,0.233,0.399,0.372,0.340,0.193,0.165,northwest,3.3,No
2016/12/25,19:00,0.388,0.233,0.398,0.371,0.340,0.193,0.165,north-northwest,3.6,No
2016/12/25,19:10,0.386,0.232,0.399,0.371,0.341,0.192,0.164,northwest,3.1,No
2016/12/25,19:20,0.387,0.233,0.400,0.371,0.342,0.192,0.164,north-northwest,2.7,No
2016/12/25,19:30,0.386,0.233,0.399,0.371,0.341,0.193,0.164,north-northwest,3.5,No
2016/12/25,19:40,0.387,0.234,0.400,0.372,0.340,0.193,0.164,north-northwest,4.9,No
2016/12/25,19:50,0.387,0.233,0.399,0.369,0.340,0.192,0.165,north-northwest,4.2,No
2016/12/25,20:00,0.386,0.233,0.401,0.372,0.339,0.193,0.164,north-northwest,4.0,No
2016/12/25,20:10,0.388,0.234,0.399,0.371,0.342,0.191,0.165,north,4.0,No
2016/12/25,20:20,0.389,0.235,0.400,0.371,0.339,0.192,0.165,north,4.4,No
2016/12/25,20:30,0.386,0.233,0.399,0.371,0.340,0.192,0.165,north,4.9,No
2016/12/25,20:40,0.387,0.233,0.401,0.371,0.339,0.192,0.164,north-northwest,4.6,No
2016/12/25,20:50,0.387,0.234,0.400,0.372,0.341,0.192,0.164,north,4.4,No
2016/12/25,21:00,0.388,0.232,0.400,0.370,0.340,0.192,0.164,north-northwest,3.6,No
2016/12/25,21:10,0.387,0.233,0.398,0.371,0.340,0.193,0.164,north-northwest,4.2,No
2016/12/25,21:20,0.387,0.233,0.401,0.372,0.339,0.191,0.164,north-northwest,2.2,No
2016/12/25,21:30,0.386,0.234,0.400,0.371,0.339,0.193,0.165,north-northwest,2.5,No
2016/12/25,21:40,0.388,0.234,0.400,0.371,0.341,0.192,0.163,northwest,1.5,No
2016/12/25,21:50,0.388,0.234,0.399,0.370,0.339,0.192,0.164,west-northwest,2.3,No
2016/12/25,22:00,0.386,0.234,0.399,0.371,0.340,0.192,0.165,west-northwest,4.0,No
2016/12/25,22:10,0.387,0.234,0.400,0.370,0.340,0.193,0.164,northwest,3.4,No
2016/12/25,22:20,0.387,0.234,0.400,0.370,0.340,0.192,0.165,northwest,4.0,No
2016/12/25,22:30,0.385,0.233,0.399,0.370,0.340,0.193,0.165,north-northwest,5.2,No
2016/12/25,22:40,0.386,0.232,0.399,0.369,0.339,0.192,0.164,north-northwest,4.2,No
2016/12/25,22:50,0.387,0.233,0.400,0.371,0.340,0.192,0.164,north-northwest,4.5,No
2016/12/25,23:00,0.388,0.233,0.399,0.371,0.339,0.192,0.164,north-northwest,4.5,No
2016/12/25,23:10,0.387,0.235,0.399,0.371,0.340,0.192,0.164,northwest,4.2,No
2016/12/25,23:20,0.386,0.233,0.398,0.370,0.340,0.192,0.165,northwest,4.3,No
2016/12/25,23:30,0.386,0.234,0.400,0.369,0.340,0.193,0.164,northwest,4.1,No
2016/12/25,23:40,0.386,0.235,0.400,0.372,0.338,0.192,0.164,west-northwest,4.5,No
2016/12/25,23:50,0.387,0.232,0.398,0.371,0.340,0.192,0.164,west,3.8,No
